Location: Buchloe
(48.0161°N, 10.7316°E)
Time: 04:26:36
(UTC+02:00)

ISS - Pass Details

Date: 11 July 2025
Orbit: 413 x 417 km, 51.6° (Epoch: 12 July)

Event Time Altitude Azimuth Distance (km) Brightness Sun altitude
Rises 21:57:00 0° 239° (WSW) 2,341 0.3 -6.2°
Reaches altitude 10° 21:59:05 10° 237° (WSW) 1,482 -0.8 -6.5°
Maximum altitude 22:02:23 70° 153° (SSE) 443 -3.8 -6.9°
Drops below altitude 10° 22:05:43 10° 69° (ENE) 1,491 -1.2 -7.3°
Sets 22:07:49 0° 68° (ENE) 2,356 -0.2 -7.5°
